[[{"header":{"parameterUnit":"m.s-1","parameterCategory":1,"la1":30.2991,"la2":30.254,"lo1":-89.0895,"lo2":-89.0444,"dy":0.0017,"dx":0.0017,"nx":28,"ny":28,"refTime":"2024-03-28T03:00:00:Z","depth":0,"parameterNumber":2,"parameterNumberName":"U-component_of_WINDS"},"data":[0,0,0,0,0,0,0,0,0,0,0,0,0,0,0,0,0,0,0,0,0,0,0,0,0,0,0,0,0,0,0,0,0,0,0,0,0,0,0,0,0,0,0,0,0,0,0,0,0,0,0,0,0,0,0,0,0,0,-1.9047,-1.9047,0,-1.9049,-1.9049,-1.9049,-1.8926,-1.8923,-1.892,-1.8916,-1.8921,-1.8924,-1.8927,0,0,0,0,0,0,0,0,0,0,0,0,0,-1.8937,-1.8939,-1.9047,-1.9047,-1.9047,-1.9049,-1.9049,-1.9049,-1.8927,-1.8923,-1.8919,-1.8915,-1.892,-1.8923,-1.8927,0,0,0,0,0,0,0,0,0,0,0,0,0,-1.8967,-1.894,-1.9047,-1.8986,-1.898,-1.9049,-1.9049,-1.9049,-1.8927,-1.8923,-1.8918,-1.8913,-1.8918,-1.8923,-1.8928,-1.9056,0,0,-1.8942,-1.8944,0,0,0,0,0,0,0,0,-1.8965,-1.8971,-1.8995,-1.899,-1.8984,-1.8982,-1.9012,-1.9052,-1.8929,-1.8948,-1.8916,-1.8911,-1.8945,-1.8947,-1.8959,-1.9056,-1.9056,-1.8943,-1.8945,-1.8948,-1.8949,0,0,0,0,0,0,0,-1.8963,-1.897,-1.9048,-1.8995,-1.8989,-1.8959,-1.8958,-1.9019,-1.8974,-1.8946,-1.8937,-1.8939,-1.8941,-1.8955,-1.8958,-1.9056,-1.8942,-1.8947,-1.895,-1.8951,-1.9259,-1.9264,0,0,0,0,0,0,-1.8969,-1.8969,-1.9048,-1.9048,-1.8962,-1.8965,-1.8963,-1.8988,-1.8973,-1.8966,-1.8943,-1.8933,-1.8949,-1.8953,-1.8958,-1.9108,-1.8947,-1.8952,-1.8955,-1.9254,-1.926,-1.9266,0,0,0,0,0,0,-1.8967,-1.8977,-1.9048,-1.9006,-1.9013,-1.8972,-1.9,-1.8991,-1.9004,-1.8971,-1.8962,-1.8965,-1.8945,-1.8951,-1.9032,-1.9106,-1.8954,-1.8958,-1.9247,-1.9256,-1.9263,-1.9408,0,0,0,0,0,0,-1.8965,-1.8977,-1.9025,-1.9008,-1.9015,-1.9122,-1.9005,-1.8994,-1.9012,-1.8999,-1.8989,-1.8983,-1.8942,-1.9026,-1.9037,-1.911,-1.8962,-1.9241,-1.9251,-1.926,-1.9397,-1.942,-1.944,0,0,0,0,0,-1.8961,-1.9066,-1.9028,-1.9039,-1.9074,-1.9127,-1.9131,-1.9082,-1.9018,-1.9067,-1.9046,-1.8983,-1.9096,-1.9035,-1.9047,-1.9122,-1.9236,-1.9248,-1.926,-1.9387,-1.9416,-1.944,0,0,0,0,0,0,-1.9094,-1.9063,-1.9021,-1.9123,-1.9129,-1.9106,-1.9165,-1.9113,-1.9137,-1.9124,-1.9061,-1.906,-1.9152,-1.9144,-1.9078,-1.9245,-1.9155,-1.9169,-1.9248,-1.9274,-1.9296,-1.9297,-1.8966,0,0,0,0,0,-1.9135,-1.918,-1.915,-1.9244,-1.9248,-1.9207,-1.9228,-1.9189,-1.9192,-1.9194,-1.9179,-1.9185,-1.9221,-1.9247,-1.9279,-1.9394,-1.9391,-1.9452,-1.9474,-1.9492,-1.9506,-1.9568,-1.9595,-1.9305,-1.9305,-1.9305,0,0,-1.9221,-1.9209,-1.9241,-1.927,-1.927,-1.9318,-1.921,-1.9265,-1.9301,-1.9202,-1.9279,-1.9268,-1.927,-1.937,-1.9413,-1.9366,-1.9585,-1.9507,-1.9521,-1.9526,-1.9583,-1.961,-1.9635,-1.9313,-1.9312,-1.931,0,0,-1.9402,-1.9397,-1.9475,-1.9477,-1.9478,-1.9449,-1.9468,-1.9453,-1.9442,-1.9517,-1.9445,-1.9486,-1.955,-1.9556,-1.9567,-1.975,-1.9694,-1.9762,-1.9877,-1.9938,-1.9961,-1.9981,-2.0048,-2.0072,-1.9776,-1.9776,-1.9776,0,-1.9509,-1.9579,-1.9522,-1.9583,-1.9598,-1.951,-1.959,-1.9594,-1.9606,-1.9618,-1.9566,-1.9645,-1.964,-1.9741,-1.9785,-1.9796,-1.9817,-1.9764,-1.9962,-1.9981,-1.9999,-2.0063,-2.0088,-1.9785,-1.9784,-1.9783,-1.9782,0,-1.9711,-1.976,-1.9823,-1.9837,-1.9858,-1.9928,-1.9883,-1.9912,-1.9871,-1.9848,-1.9927,-1.9918,-1.9947,-1.9967,-1.9928,-2.0062,-2.0033,-1.9972,-1.988,-2.0036,-2.0095,-2.0118,-1.9797,-1.9794,-1.9791,-1.9789,0,0,-1.9977,-1.9958,-1.9982,-1.9988,-1.9982,-2.0019,-2.0085,-2.0113,-2.014,-2.0151,-2.0205,-2.0262,-2.0205,-2.0218,-2.0178,-2.0231,-2.0379,-2.0163,-2.0163,-2.0206,-2.0529,-2.0576,-2.0605,-2.0341,-2.0345,-2.0349,-2.0529,0,-2.0155,-2.0266,-2.0217,-2.0334,-2.038,-2.0297,-2.0355,-2.0358,-2.0338,-2.0375,-2.0352,-2.0394,-2.0315,-2.0323,-2.0372,-2.0351,-2.0444,-2.0337,-2.0393,-2.0395,-2.0397,-2.0636,-2.0686,-2.0857,-2.0551,-2.0555,-2.0558,0,-2.0377,-2.0397,-2.0519,-2.0506,-2.0523,-2.0576,-2.0598,-2.0633,-2.0635,-2.0617,-2.0631,-2.0579,-2.0644,-2.055,-2.0639,-2.0567,-2.0587,-2.058,-2.0585,-2.0591,-2.0488,-2.0649,-2.091,-2.0937,-2.0593,-2.059,-2.0588,0,-2.0562,-2.0619,-2.07,-2.0707,-2.0693,-2.0732,-2.0728,-2.0724,-2.0745,-2.0764,-2.0777,-2.0803,-2.0819,-2.0841,-2.0798,-2.0733,-2.0893,-2.0795,-2.0881,-2.0882,-2.092,-2.0919,-2.119,-2.0929,-2.0929,-2.0928,-2.0928,0,-2.0767,-2.0846,-2.0783,-2.0833,-2.0918,-2.0861,-2.0947,-2.0934,-2.0932,-2.0978,-2.0907,-2.0952,-2.0891,-2.0931,-2.0897,-2.0976,-2.0983,-2.0971,-2.0962,-2.0979,-2.0981,-2.0992,-2.098,-2.0935,-2.0934,-2.0932,-2.0931,0,-2.0989,-2.095,-2.1033,-2.1013,-2.1009,-2.1074,-2.1056,-2.1102,-2.1077,-2.1136,-2.1147,-2.1108,-2.1151,-2.1109,-2.1149,-2.1126,-2.1233,-2.1205,-2.1233,-2.1226,-2.1315,-2.1308,-2.1604,-2.1641,-2.1356,-2.1358,-2.1361,0,-2.1124,-2.1182,-2.1168,-2.1194,-2.1194,-2.1237,-2.1257,-2.1202,-2.1227,-2.1233,-2.1279,-2.1315,-2.1341,-2.1413,-2.1389,-2.1419,-2.1393,-2.1495,-2.1397,-2.1413,-2.1397,-2.1395,-2.1401,-2.1515,-2.1519,-2.1522,-2.1524,0,-2.1367,-2.1345,-2.1377,-2.1403,-2.1429,-2.1447,-2.1459,-2.1484,-2.1428,-2.1459,-2.1501,-2.1522,-2.1563,-2.16,-2.1623,-2.1619,-2.1564,-2.1554,-2.1576,-2.1595,-2.161,-2.1605,-2.129,-2.1548,-2.1546,-2.1544,-2.1543,-2.1542,-2.1551,-2.1599,-2.1598,-2.1636,-2.1639,-2.1652,-2.1694,-2.1674,-2.1709,-2.1738,-2.1703,-2.1756,-2.1756,-2.1781,-2.1784,-2.1824,-2.1782,-2.1813,-2.1821,-2.183,-2.1844,-2.1602,-2.1828,-2.1827,-2.1827,-2.1826,-2.1825,0,-2.1792,-2.1787,-2.1823,-2.1842,-2.1873,-2.1816,-2.1826,-2.1856,-2.1903,-2.1908,-2.1935,-2.1985,-2.2021,-2.1999,-2.203,-2.2067,-2.2042,-2.2077,-2.2075,-2.2075,-2.188,-2.1859,-2.2097,-2.2097,-2.2097,-2.2096,-2.2096,-2.2096,-2.1922,-2.2002,-2.1979,-2.206,-2.2053,-2.2105,-2.2116,-2.2128,-2.2131,-2.219,-2.222,-2.2205,-2.2199,-2.2229,-2.226,-2.2252,-2.2268,-2.2313,-2.2297,-2.2115,-2.2089,-2.2063,-2.2043,-2.2316,-2.2317,-2.2489,-2.2491,-2.2492]},{"header":{"parameterUnit":"m.s-1","parameterCategory":1,"la1":30.2991,"la2":30.254,"lo1":-89.0895,"lo2":-89.0444,"dy":0.0017,"dx":0.0017,"nx":28,"ny":28,"refTime":"2024-03-28T03:00:00:Z","depth":0,"parameterNumber":3,"parameterNumberName":"V-component_of_WINDS"},"data":[0,0,0,0,0,0,0,0,0,0,0,0,0,0,0,0,0,0,0,0,0,0,0,0,0,0,0,0,0,0,0,0,0,0,0,0,0,0,0,0,0,0,0,0,0,0,0,0,0,0,0,0,0,0,0,0,0,0,-1.9875,-1.9876,0,-1.9984,-1.9985,-1.9986,-2.001,-2.0009,-2.0009,-2.0008,-2.0117,-2.0121,-2.0124,0,0,0,0,0,0,0,0,0,0,0,0,0,-1.9686,-1.969,-1.9875,-1.9876,-1.9878,-1.9984,-1.9985,-1.9987,-2.001,-2.0009,-2.0008,-2.0008,-2.0116,-2.012,-2.0125,0,0,0,0,0,0,0,0,0,0,0,0,0,-1.9779,-1.9691,-1.9875,-1.9902,-1.9906,-1.9983,-1.9985,-1.9987,-2.001,-2.0009,-2.0008,-2.0007,-2.0115,-2.012,-2.0125,-2.0182,0,0,-2.0142,-2.0144,0,0,0,0,0,0,0,0,-1.9774,-1.9786,-1.9897,-1.9901,-1.9905,-1.9982,-1.9959,-2.0052,-2.0011,-1.9971,-2.0008,-2.0006,-2.0073,-2.0082,-2.0105,-2.0188,-2.0192,-2.0143,-2.0146,-2.0148,-2.015,0,0,0,0,0,0,0,-1.9767,-1.9781,-1.9918,-1.9899,-1.9903,-1.9909,-1.9921,-1.9977,-2.0027,-1.9974,-1.9976,-1.9989,-2.0075,-2.01,-2.0108,-2.0194,-2.0142,-2.0147,-2.0151,-2.0153,-2.0329,-2.033,0,0,0,0,0,0,-1.9756,-1.9776,-1.9915,-1.9921,-1.9835,-1.9913,-1.9926,-1.9959,-2.0027,-2.0036,-1.999,-1.9989,-2.0091,-2.0101,-2.0112,-2.0183,-2.0148,-2.0153,-2.0156,-2.0327,-2.0329,-2.0331,0,0,0,0,0,0,-1.9752,-1.9768,-1.991,-1.9849,-1.9868,-1.9918,-1.9954,-1.9961,-1.9986,-2.0038,-2.0047,-2.0006,-2.009,-2.0104,-2.0165,-2.0187,-2.0156,-2.0161,-2.0326,-2.0328,-2.033,-2.0326,0,0,0,0,0,0,-1.9747,-1.9767,-1.9789,-1.985,-1.9871,-1.9962,-1.9955,-1.9964,-1.9995,-1.9996,-2.0056,-2.0064,-2.009,-2.0157,-2.017,-2.0194,-2.0165,-2.0324,-2.0327,-2.0329,-2.0324,-2.0328,-2.0331,0,0,0,0,0,-1.974,-1.9783,-1.979,-1.9807,-1.99,-1.9963,-1.9975,-2.0005,-1.9997,-2.002,-2.0054,-2.0062,-2.0182,-2.0163,-2.0178,-2.0204,-2.0323,-2.0326,-2.0329,-2.0323,-2.0327,-2.033,0,0,0,0,0,0,-1.9724,-1.9792,-1.98,-1.9865,-1.9908,-1.9967,-1.9997,-2.0009,-2.0055,-2.0053,-2.0088,-2.0101,-2.016,-2.0188,-2.0165,-2.0263,-2.0252,-2.0259,-2.0242,-2.0247,-2.025,-2.0241,-2.0169,0,0,0,0,0,-1.9728,-1.9774,-1.9831,-1.9882,-1.9904,-1.9947,-1.9975,-1.9994,-2.004,-2.0059,-2.0097,-2.0141,-2.0188,-2.0219,-2.0266,-2.0328,-2.0342,-2.0354,-2.0357,-2.0359,-2.0364,-2.04,-2.0406,-2.0341,-2.0341,-2.0341,0,0,-1.9737,-1.978,-1.9807,-1.988,-1.9916,-1.9963,-1.9962,-2.0011,-2.0046,-2.0066,-2.0126,-2.0156,-2.0207,-2.0269,-2.0298,-2.0294,-2.0385,-2.0363,-2.0365,-2.0369,-2.0404,-2.041,-2.0415,-2.0343,-2.0343,-2.0342,0,0,-1.9777,-1.9814,-1.9861,-1.9897,-1.9952,-1.998,-1.9991,-2.0049,-2.0069,-2.013,-2.0146,-2.0188,-2.0269,-2.0305,-2.0334,-2.0387,-2.0397,-2.0402,-2.0418,-2.0452,-2.0457,-2.0462,-2.0481,-2.0487,-2.0407,-2.0407,-2.0407,0,-1.9781,-1.9852,-1.9884,-1.9933,-1.9964,-1.9985,-2.0033,-2.0066,-2.0133,-2.0154,-2.0149,-2.0252,-2.0288,-2.0358,-2.0371,-2.0394,-2.0408,-2.0395,-2.0454,-2.0459,-2.0464,-2.0482,-2.0489,-2.0407,-2.0407,-2.0407,-2.0407,0,-1.9854,-1.9904,-1.9935,-2.0,-2.0035,-2.0083,-2.0121,-2.0153,-2.0169,-2.0197,-2.0259,-2.0303,-2.0359,-2.0377,-2.0393,-2.045,-2.0446,-2.0447,-2.0437,-2.0469,-2.0488,-2.0495,-2.0407,-2.0407,-2.0407,-2.0407,0,0,-1.9887,-1.9969,-1.998,-2.001,-2.0071,-2.011,-2.0158,-2.0214,-2.024,-2.0286,-2.0327,-2.0396,-2.0397,-2.0429,-2.045,-2.0479,-2.0519,-2.0477,-2.0478,-2.0483,-2.0585,-2.0584,-2.0592,-2.0526,-2.0527,-2.0529,-2.058,0,-1.9935,-2.0023,-2.0053,-2.0126,-2.0172,-2.0192,-2.0235,-2.0277,-2.0305,-2.0347,-2.0378,-2.0426,-2.0424,-2.0444,-2.0474,-2.0508,-2.054,-2.0504,-2.0564,-2.0566,-2.0551,-2.0601,-2.06,-2.0647,-2.0588,-2.0589,-2.059,0,-2.0002,-2.0049,-2.0127,-2.0183,-2.0203,-2.0241,-2.0294,-2.0335,-2.0383,-2.0401,-2.0438,-2.0456,-2.0507,-2.0494,-2.0565,-2.054,-2.0566,-2.0586,-2.0589,-2.0595,-2.058,-2.0609,-2.0663,-2.067,-2.0601,-2.06,-2.06,0,-2.0019,-2.0101,-2.0158,-2.0183,-2.025,-2.0276,-2.0305,-2.0352,-2.0383,-2.043,-2.045,-2.0501,-2.053,-2.0569,-2.06,-2.0587,-2.0668,-2.0657,-2.0684,-2.0683,-2.07,-2.0699,-2.0759,-2.0717,-2.0717,-2.0717,-2.0717,0,-2.0069,-2.0115,-2.0167,-2.0202,-2.0255,-2.0288,-2.0339,-2.037,-2.0411,-2.0452,-2.0473,-2.0511,-2.055,-2.0593,-2.0617,-2.0672,-2.0685,-2.07,-2.0706,-2.0699,-2.0697,-2.0716,-2.0714,-2.0719,-2.0718,-2.0718,-2.0717,0,-2.0096,-2.0132,-2.0196,-2.0254,-2.027,-2.0306,-2.0356,-2.0391,-2.0419,-2.0471,-2.0485,-2.053,-2.0582,-2.0617,-2.0683,-2.0699,-2.0759,-2.0764,-2.0743,-2.0746,-2.0771,-2.0768,-2.0846,-2.0858,-2.0807,-2.0808,-2.0808,0,-2.0126,-2.0162,-2.0224,-2.0254,-2.0283,-2.033,-2.0362,-2.0396,-2.0429,-2.0486,-2.0514,-2.0567,-2.0612,-2.0693,-2.0731,-2.0782,-2.0789,-2.0812,-2.0796,-2.0787,-2.0789,-2.0787,-2.079,-2.0815,-2.0815,-2.0816,-2.0816,0,-2.0174,-2.019,-2.0237,-2.0289,-2.0327,-2.037,-2.0413,-2.0436,-2.0477,-2.0513,-2.0566,-2.0601,-2.0668,-2.0721,-2.0775,-2.0804,-2.0817,-2.0821,-2.083,-2.0822,-2.0808,-2.0816,-2.075,-2.0819,-2.0818,-2.0818,-2.0818,-2.0818,-2.0204,-2.0237,-2.0287,-2.0337,-2.0373,-2.0413,-2.0448,-2.0482,-2.0527,-2.0585,-2.0602,-2.0658,-2.0705,-2.0779,-2.0809,-2.0853,-2.0851,-2.0863,-2.0867,-2.0869,-2.0869,-2.0801,-2.0863,-2.0863,-2.0863,-2.0863,-2.0863,0,-2.0254,-2.0286,-2.0333,-2.0392,-2.0432,-2.0441,-2.0489,-2.0522,-2.0571,-2.0614,-2.0657,-2.0718,-2.0769,-2.0811,-2.0864,-2.0891,-2.0898,-2.0903,-2.0902,-2.0908,-2.0868,-2.0855,-2.0897,-2.0897,-2.0897,-2.0897,-2.0897,-2.0897,-2.0285,-2.0342,-2.0364,-2.0439,-2.0471,-2.0526,-2.0553,-2.0589,-2.0624,-2.0691,-2.0734,-2.0761,-2.0804,-2.086,-2.0907,-2.0918,-2.0937,-2.0941,-2.0953,-2.0915,-2.0911,-2.0907,-2.0896,-2.0944,-2.0945,-2.099,-2.099,-2.099]}]]